Location: Newark
(25.6108°S, 54.5803°W)
Time: 16:03:42
(UTC+00:00)

Courier 1B Rocket - Pass Details

Date: 29 October 2020
Orbit: 920 x 1202 km, 28.2° (Epoch: 22 November)

Event Time Altitude Azimuth Distance (km) Brightness Sun altitude
Rises 14:11:41 0° 257° (WSW) 3,694 7.8 69.7°
Reaches altitude 10° 14:14:25 10° 259° (W) 2,709 7.3 70.2°
Maximum altitude 14:20:52 68° 341° (NNW) 1,003 6.6 71.4°
Drops below altitude 10° 14:27:04 10° 63° (ENE) 2,609 7.7 72.5°
Sets 14:29:39 0° 65° (ENE) 3,548 8.2 72.9°
